COSMOS 2499 DEB, 60608

Orbit data source: Space-Track

COSMOS 2499 DEB, 60608 is space debris in LEO originally from a launch on Fri, 23 May 2014 UTC launched from the Plesetsk Missile And Space Complex (PKMTR). Debris objects in space refer to the collection of defunct objects orbiting the Earth. Examples of debris include non-operational satellites, rocket bodies, and fragments generated from explosions, collisions, or faulty payload assembly.

Loading next visibility...
Identifier
60608, 2014-028BU
Orbit
LEO
Country
Flag of CISCIS
Related business
Manufacturer
TsNIIKhM
Mission
Spacecraft
Bus & Motor
Unknown
Mass
Unknown
Launch date (UTC)
2014-05-23 (12 years ago)
Launch vehicle
Unknown
Launch site
Plesetsk Missile And Space Complex (PKMTR)
Object type
Payload
Rocket body
Debris
Shape & HBR
Unknown shape, 0.1 m
Radar Cross Section
Small (<0.1 m²)

Expand to show TLE details & history
Last TLE update: 1 day ago

TLE from 1 day ago
0 COSMOS 2499 DEB
1 60608U 14028BU  25349.23923545  .00005183  00000-0  12234-1 0  9991
2 60608  82.3103 333.2735 0274712 322.3654  35.8515 13.10698220124199
Epoch: 2025-12-15T05:44Z
TLE epoch observation values (Epoch: 2025-12-15T05:44:29.942Z)
Latitude
-0.00004°
Longitude
163.00808°
Altitude
1,056.067 km
Speed
7.404 km/s
True Right ascension
22h 13m 05s
True Declination
0° 00' 00"
Sunlit
Object was in daylight at epoch
Visualization orbit readout
Latitude
Unknown
Longitude
Unknown
Altitude
Unknown
Speed
Unknown
Apparent Right ascension
Unknown
Apparent Declination
Unknown
Sunlit
N/A
Visualization observer readout
Local Sidereal Time
11:11:21
Azimuth
Unknown
Elevation
Unknown
Doppler factor
Unknown
Orbital elements
Apogee altitude
1,426.386 km
Perigee altitude
1,009.052 km
Semi-major axis
7,595.856 km
Eccentricity
0.02747
Inclination
82.3103°
RAAN
333.2735°
Arg. of periapsis
322.3654°
True anomaly
37.7476°
Mean anomaly
35.8515°
Eccentric anomaly
36.79423°
Mean motion
3.27852 °/min
Orbital period
109.81 mins
BSTAR
0.012234
Loading maneuver chart data...
Computing Atmospheric mass density...
Loading historical data...
Loading historical data...
Loading historical data...
Loading historical data...
Loading historical data...
Loading historical data...
Loading historical data...

Documentation

Showing up to 5 results
|